Flag for U.S.A. Weather past 2 weeks in Mason, Ohio, U.S.A.

Now
74 °F

Clear.


Feels Like: 71 °F
Forecast: 69 / 80 °F
Wind: 3 mph from Southwest

Location: Butler County Regional Airport

Current Time: Sep 2, 2014 at 2:09:56 AM

Latest Report: Sep 2, 2014 at 12:53 AM


Visibility: 10 mi

Pressure: 29.95 "Hg

Humidity: 94%

Dew point: 72 °F

Location of MasonLocation

Historic Weather in Mason — Graph

°F

Mason temperature yesterday

Maximum temperature yesterday: 87 °F (at 3:53 PM)
Minimum temperature yesterday: 69 °F (at 12:53 AM)
Average temperature yesterday: 77 °F

Past Weeks' High & Low Weather Summary

 TemperatureHumidityPressure
High92 °F (Aug 26, 4:53 PM)100% (Aug 19, 6:02 AM)30.14 "Hg (Aug 19, 6:02 AM)
Low64 °F (Aug 19, 6:58 AM)48% (Aug 29, 2:53 PM)29.79 "Hg (Aug 18, 4:53 PM)
Average76 °F82%29.99 "Hg
* Reported Aug 18 12:53 AM — Sep 2 12:53 AM, Mason, Weather by CustomWeather, © 2014

Note: Actual official high and low records may vary slightly from our data, if they occured in-between our weather recording intervals... More about our weather records

Advertising

Mason weather history for previous 24 hours

 ConditionsComfort  
Time TempWeatherWind HumidityBarometerVisibility
12:53 AM
Sep 2
74 °FClear.3 mph94%29.95 "Hg10 mi
11:53 PM
Sep 1
74 °FClear.6 mph91%29.94 "Hg10 mi
10:53 PM74 °FClear.5 mph94%29.93 "Hg10 mi
9:53 PM76 °FClear.3 mph88%29.93 "Hg10 mi
8:53 PM74 °FFog.No wind97%29.91 "Hg5 mi
7:53 PM76 °FLight rain. Broken clouds.3 mph91%29.91 "Hg7 mi
6:53 PM80 °FPassing clouds.7 mph79%29.90 "Hg10 mi
5:53 PM82 °FPassing clouds.6 mph74%29.89 "Hg10 mi
5:02 PM77 °FThundershowers. Broken clouds.No wind88%29.91 "Hg10 mi
3:53 PM87 °FScattered clouds.8 mph63%29.90 "Hg10 mi
2:53 PM84 °FSunny.8 mph70%29.90 "Hg10 mi
1:53 PM85 °FPassing clouds.9 mph68%29.92 "Hg10 mi
12:53 PM83 °FMostly cloudy.13 mph70%29.94 "Hg10 mi
11:53 AM81 °FPartly sunny.7 mph74%29.96 "Hg10 mi
10:53 AM80 °FBroken clouds.7 mph81%29.98 "Hg10 mi
9:53 AM78 °FPartly sunny.7 mph84%29.99 "Hg7 mi
8:53 AM76 °FLight rain. More clouds than sun.6 mph88%29.98 "Hg7 mi
7:53 AM75 °FMostly cloudy.No wind90%29.98 "Hg7 mi
6:53 AM74 °FOvercast.5 mph94%29.98 "Hg8 mi
5:53 AM73 °FMostly cloudy.No wind97%29.99 "Hg8 mi
4:53 AM73 °FOvercast.No wind94%29.99 "Hg10 mi
3:53 AM73 °FLow clouds.No wind97%29.99 "Hg10 mi
2:53 AM71 °FOvercast.No wind100%29.99 "Hg10 mi
Weather by CustomWeather, © 2014

See weather overviewHow to use our weather pages